Location: Unspecified
(0.0000°N, 0.0000°E)
Time: 20:02:21
(UTC+00:00)

CZ-3C DEB - Pass Details

Date: 12 March 2026
Orbit: 717 x 38360 km, 18.5° (Epoch: 25 March)

Event Time Altitude Azimuth Distance (km) Brightness Sun altitude
Rises 03:55:13 0° 71° (ENE) 41,091 ? -33.6°
Reaches altitude 10° 05:21:05 10° 71° (ENE) 42,669 ? -12.2°
Maximum altitude 08:54:56 29° 72° (ENE) 29,355 ? 41.2°
Drops below altitude 10° 10:22:32 10° 84° (E) 16,120 ? 63.0°
Sets 10:34:03 0° 88° (E) 14,361 ? 65.9°
